When you browse on this site, cookies collect data to enhance your experience and personalize the content and advertising you see.
Visit our Privacy Policy to learn more. By continuing to use the site, you agree to this use of cookies and data.
  • en Suisse
  • Liste des pays
  • À 7 jours
  • Température de l'eau
  • Carte satellitaire
  • Carte météo
  • Widgets météo
  • user-avatar
    Se connecter

    Météo par heure à Tomakhiv

    Ce jour, 23 Juillet, Mardi

    Heure Température Précipitation Vent Pression Humidité
    00:00 +17°C° 0 mm 2 m/s 745 mmHg 82%
    01:00 +17°C° 0 mm 3 m/s 745 mmHg 84%
    02:00 +17°C° 0 mm 2 m/s 745 mmHg 89%
    03:00 +16°C° 0 mm 2 m/s 745 mmHg 91%
    04:00 +16°C° 0 mm 2 m/s 745 mmHg 92%
    05:00 +15°C° 0 mm 2 m/s 745 mmHg 94%
    06:00 +17°C° 0 mm 2 m/s 745 mmHg 88%
    07:00 +18°C° 0 mm 3 m/s 745 mmHg 82%
    08:00 +19°C° 0 mm 3 m/s 745 mmHg 77%
    09:00 +20°C° 0 mm 4 m/s 745 mmHg 72%
    10:00 +21°C° 0 mm 4 m/s 745 mmHg 67%
    11:00 +22°C° 0 mm 5 m/s 745 mmHg 62%
    12:00 +22°C° 0 mm 5 m/s 744 mmHg 60%
    13:00 +23°C° 0 mm 5 m/s 744 mmHg 59%
    14:00 +23°C° 0 mm 5 m/s 744 mmHg 57%
    15:00 +23°C° 0 mm 5 m/s 744 mmHg 59%
    16:00 +23°C° 0 mm 5 m/s 744 mmHg 60%
    17:00 +23°C° 0 mm 5 m/s 744 mmHg 62%
    18:00 +21°C° 0 mm 4 m/s 744 mmHg 68%
    19:00 +19°C° 0 mm 3 m/s 743 mmHg 75%
    20:00 +18°C° 0 mm 3 m/s 743 mmHg 82%
    21:00 +17°C° 0 mm 3 m/s 743 mmHg 84%
    22:00 +17°C° 0 mm 3 m/s 744 mmHg 86%
    23:00 +16°C° 0 mm 3 m/s 744 mmHg 89%

    Demain, 24 Juillet, Mercredi

    Heure Température Précipitation Vent Pression Humidité
    00:00 +16°C° 0 mm 3 m/s 744 mmHg 90%
    01:00 +14°C° 0 mm 3 m/s 744 mmHg 91%
    02:00 +14°C° 0 mm 4 m/s 744 mmHg 92%
    03:00 +14°C° 0 mm 4 m/s 743 mmHg 94%
    04:00 +14°C° 0 mm 4 m/s 743 mmHg 95%
    05:00 +14°C° 0 mm 4 m/s 743 mmHg 97%
    06:00 +15°C° 0 mm 4 m/s 743 mmHg 93%
    07:00 +17°C° 0 mm 4 m/s 743 mmHg 88%
    08:00 +19°C° 0 mm 5 m/s 744 mmHg 84%
    09:00 +20°C° 0.2 mm 5 m/s 744 mmHg 81%
    10:00 +21°C° 0.2 mm 5 m/s 744 mmHg 77%
    11:00 +22°C° 0.2 mm 5 m/s 744 mmHg 73%
    12:00 +23°C° 0.7 mm 5 m/s 743 mmHg 72%
    13:00 +23°C° 0.7 mm 5 m/s 743 mmHg 70%
    14:00 +25°C° 0.7 mm 4 m/s 743 mmHg 68%
    15:00 +25°C° 0.2 mm 4 m/s 743 mmHg 68%
    16:00 +25°C° 0.2 mm 4 m/s 743 mmHg 68%
    17:00 +25°C° 0.2 mm 4 m/s 743 mmHg 68%
    18:00 +22°C° 0.8 mm 4 m/s 743 mmHg 74%
    19:00 +21°C° 0.8 mm 3 m/s 743 mmHg 80%
    20:00 +19°C° 0.8 mm 3 m/s 743 mmHg 87%
    21:00 +19°C° 0.2 mm 2 m/s 744 mmHg 88%
    22:00 +18°C° 0.2 mm 2 m/s 744 mmHg 90%
    23:00 +17°C° 0.2 mm 2 m/s 744 mmHg 91%

    Après-demain, 25 Juillet, Jeudi

    Heure Température Précipitation Vent Pression Humidité
    00:00 +17°C° 0 mm 2 m/s 744 mmHg 92%
    01:00 +16°C° 0 mm 2 m/s 744 mmHg 93%
    02:00 +16°C° 0 mm 2 m/s 744 mmHg 93%
    03:00 +16°C° 0 mm 2 m/s 744 mmHg 94%
    04:00 +16°C° 0 mm 2 m/s 745 mmHg 94%
    05:00 +15°C° 0 mm 2 m/s 745 mmHg 95%
    06:00 +17°C° 0 mm 2 m/s 745 mmHg 91%
    07:00 +18°C° 0 mm 2 m/s 745 mmHg 86%
    08:00 +20°C° 0 mm 2 m/s 745 mmHg 82%
    09:00 +21°C° 0 mm 2 m/s 745 mmHg 74%
    10:00 +23°C° 0 mm 2 m/s 745 mmHg 66%
    11:00 +25°C° 0 mm 2 m/s 745 mmHg 58%
    12:00 +25°C° 0 mm 2 m/s 745 mmHg 56%
    13:00 +26°C° 0 mm 3 m/s 745 mmHg 54%
    14:00 +26°C° 0 mm 3 m/s 744 mmHg 52%
    15:00 +26°C° 0.1 mm 3 m/s 744 mmHg 55%
    16:00 +26°C° 0.1 mm 3 m/s 744 mmHg 59%
    17:00 +25°C° 0.1 mm 3 m/s 743 mmHg 62%
    18:00 +24°C° 0.4 mm 3 m/s 743 mmHg 70%
    19:00 +21°C° 0.4 mm 2 m/s 743 mmHg 77%
    20:00 +19°C° 0.4 mm 2 m/s 743 mmHg 84%
    21:00 +19°C° 0.2 mm 2 m/s 743 mmHg 86%
    22:00 +18°C° 0.2 mm 2 m/s 743 mmHg 88%
    23:00 +18°C° 0.2 mm 2 m/s 743 mmHg 90%

    26 Juillet, Vendredi

    Heure Température Précipitation Vent Pression Humidité
    00:00 +17°C° 0.1 mm 2 m/s 742 mmHg 91%
    01:00 +17°C° 0.1 mm 2 m/s 742 mmHg 93%
    02:00 +16°C° 0.1 mm 2 m/s 742 mmHg 94%
    03:00 +16°C° 0 mm 2 m/s 742 mmHg 95%
    04:00 +16°C° 0 mm 2 m/s 742 mmHg 95%
    05:00 +15°C° 0 mm 2 m/s 741 mmHg 96%
    06:00 +17°C° 0 mm 2 m/s 741 mmHg 93%
    07:00 +18°C° 0 mm 3 m/s 741 mmHg 89%
    08:00 +19°C° 0 mm 3 m/s 741 mmHg 86%
    09:00 +20°C° 0.1 mm 3 m/s 741 mmHg 81%
    10:00 +21°C° 0.1 mm 3 m/s 741 mmHg 75%
    11:00 +22°C° 0.1 mm 3 m/s 741 mmHg 70%
    12:00 +22°C° 0.2 mm 3 m/s 741 mmHg 68%
    13:00 +24°C° 0.2 mm 3 m/s 741 mmHg 66%
    14:00 +24°C° 0.2 mm 3 m/s 740 mmHg 64%
    15:00 +24°C° 0.7 mm 3 m/s 740 mmHg 67%
    16:00 +24°C° 0.7 mm 3 m/s 740 mmHg 69%
    17:00 +22°C° 0.7 mm 3 m/s 740 mmHg 72%
    18:00 +21°C° 0.5 mm 2 m/s 740 mmHg 78%
    19:00 +20°C° 0.5 mm 2 m/s 740 mmHg 84%
    20:00 +18°C° 0.5 mm 2 m/s 740 mmHg 90%
    21:00 +18°C° 0.1 mm 2 m/s 740 mmHg 92%
    22:00 +17°C° 0.1 mm 2 m/s 740 mmHg 94%
    23:00 +17°C° 0.1 mm 3 m/s 740 mmHg 96%

    27 Juillet, Samedi

    Heure Température Précipitation Vent Pression Humidité
    00:00 +16°C° 0 mm 2 m/s 740 mmHg 96%
    01:00 +16°C° 0 mm 2 m/s 739 mmHg 96%
    02:00 +16°C° 0 mm 2 m/s 739 mmHg 97%
    03:00 +15°C° 0 mm 2 m/s 739 mmHg 97%
    04:00 +15°C° 0 mm 2 m/s 739 mmHg 97%
    05:00 +15°C° 0 mm 2 m/s 739 mmHg 98%
    06:00 +16°C° 0 mm 2 m/s 739 mmHg 96%
    07:00 +17°C° 0 mm 3 m/s 739 mmHg 95%
    08:00 +18°C° 0 mm 3 m/s 739 mmHg 93%
    09:00 +18°C° 0.1 mm 3 m/s 739 mmHg 92%
    10:00 +18°C° 0.1 mm 3 m/s 739 mmHg 91%
    11:00 +18°C° 0.1 mm 3 m/s 739 mmHg 91%
    12:00 +19°C° 0.1 mm 3 m/s 739 mmHg 88%
    13:00 +19°C° 0.1 mm 3 m/s 739 mmHg 86%
    14:00 +20°C° 0.1 mm 3 m/s 738 mmHg 84%
    15:00 +19°C° 0.1 mm 2 m/s 738 mmHg 86%
    16:00 +19°C° 0.1 mm 2 m/s 738 mmHg 88%
    17:00 +19°C° 0.1 mm 2 m/s 738 mmHg 90%
    18:00 +19°C° 0 mm 1 m/s 738 mmHg 92%
    19:00 +19°C° 0 mm 1 m/s 737 mmHg 94%
    20:00 +18°C° 0 mm 1 m/s 737 mmHg 95%
    21:00 +18°C° 0 mm 1 m/s 737 mmHg 96%
    22:00 +16°C° 0 mm 1 m/s 737 mmHg 96%
    23:00 +16°C° 0 mm 2 m/s 738 mmHg 97%

    28 Juillet, Dimanche

    Heure Température Précipitation Vent Pression Humidité
    00:00 +16°C° 0 mm 2 m/s 738 mmHg 97%
    01:00 +15°C° 0 mm 2 m/s 738 mmHg 97%
    02:00 +15°C° 0 mm 2 m/s 738 mmHg 97%
    03:00 +15°C° 0 mm 2 m/s 738 mmHg 97%
    04:00 +15°C° 0 mm 2 m/s 738 mmHg 97%
    05:00 +15°C° 0 mm 2 m/s 738 mmHg 98%
    06:00 +16°C° 0 mm 2 m/s 738 mmHg 94%
    07:00 +18°C° 0 mm 2 m/s 738 mmHg 91%
    08:00 +20°C° 0 mm 3 m/s 738 mmHg 87%
    09:00 +21°C° 0.1 mm 3 m/s 738 mmHg 81%
    10:00 +24°C° 0.1 mm 3 m/s 739 mmHg 75%
    11:00 +25°C° 0.1 mm 3 m/s 739 mmHg 68%
    12:00 +26°C° 0.2 mm 3 m/s 738 mmHg 65%
    13:00 +27°C° 0.2 mm 3 m/s 738 mmHg 62%
    14:00 +27°C° 0.2 mm 3 m/s 738 mmHg 59%
    15:00 +27°C° 0.2 mm 3 m/s 738 mmHg 62%
    16:00 +27°C° 0.2 mm 3 m/s 738 mmHg 64%
    17:00 +27°C° 0.2 mm 4 m/s 738 mmHg 67%
    18:00 +25°C° 0.1 mm 3 m/s 738 mmHg 73%
    19:00 +24°C° 0.1 mm 3 m/s 738 mmHg 79%
    20:00 +21°C° 0.1 mm 3 m/s 738 mmHg 85%
    21:00 +20°C° 0 mm 3 m/s 738 mmHg 88%
    22:00 +20°C° 0 mm 2 m/s 738 mmHg 91%
    23:00 +19°C° 0 mm 2 m/s 738 mmHg 94%
    Voir plus